"Pseudo-MPEC" for N00hhnh

Created 2020 Dec 1 20:07:05 UT using Find_Orb

Click here for an explanation of pseudo-MPECs

 
 Astrometry: 
     N00hhnh  S2020 11 26^:rivU$R,O+X^#whZ'xo$@AstrometrydNew[=BaVZU)#+8(7D1CC51
     N00hhnh  s2020 11 26JT84[j*_0n4OEIGA0#!?`%JyabCr_Fv_4t5YXOCcsKf@GwwHp^'uC51
     N00hhnh  S2020 11 267B]ZoBZk[4Z/Jmgy6mcs()@Y[B*s$%0Fbjo^%;s9u)cBJX2Bko%eC51
     N00hhnh  s2020 11 26N`-XYe]i2y4[7mv1,KnJm@L6SH'HMlPhTcG?k+YAkL=V2iJ\6i#%C51
     N00hhnh  S2020 11 260daX8-.;K'[LL@+aq1YNDxredacted;8A]UGm?b%1Ihke9Mey@k_C51
     N00hhnh  s2020 11 26\=p;k:=CuUe2df*(_oQ';Ah`g7,LMIwhn7_k2nVEYv%=Xf0F'LAoC51
     N00hhnh  S2020 11 26C'743ca6`O*RhP\`=o]B2;;y%a,(POcg=Q*$gE-Lwu;1bY'yUmoJC51
     N00hhnh  s2020 11 26Fte'ZGWc1D(*)M7/Jfe@x(SY[bLP3M%xT_Fe#1/)Mkh0?Y@iF_cxC51
     N00hhnh  S2020 11 26AW#%]-8d2jL6)O!l2N^_#ZYFZ0X`i=+Jwk7B/=XmF49Xbw3GTmUMC51
     N00hhnh  s2020 11 26y?_9ENV+T\Eq$/47VZKom3G5UMo0HO_aOg=4uxpuIO*^f:rk/?X0C51
     N00hhnh  S2020 11 26EmfL=vLeeMU,DC(v9#Fha^.!VydPXuOKah7(.qH[LTYo\Vc9+::UC51
     N00hhnh  s2020 11 26p9@qoPw0R?GZMs(bE7BoMx2gT=gnWwqq?Bfo?v!9w[fpOpUK?(I+C51
     N00hhnh |C2020 11 28o#H7KZhi+_.MKWG!X`Rn#2/sAZlI]ws`yd1YRUd7=lu9=SSoG3L3807
     N00hhnh |C2020 11 28wETWkX;BQUBoAUGvt89f.hYKvftCyG1PFe.lC#4N20CSfD):6wDe807
     N00hhnh |C2020 11 289Ia%x_XEp/E5q73ta,6_:V]CpttPr`iB!Ht:'s0ja0356tu35]q3807
     N00hhnh |C2020 11 28-E-^=G'9IP3c1,N!%(5;+%i_#pvN)*sjBj8I*;SqXdX`?]h5L)@+807
     N00hhnh |C2020 11 30sGjPqA$KQDGA6p%Q$Qdh/JbF9wrBWo?!y6B#jm.4nP%?click/VC807
     N00hhnh |C2020 11 30`@eIEMo^KAZCx*b)RBavjo0^yiW/FI@fsemh#rd^;hWKc9here2_807
     N00hhnh |C2020 11 30](Ju[9Sj_-nZsgyA/W9s;/j]f`bPyu56W9f8S?]lQLTru']4forU807
     N00hhnh |C2020 12 01RCEid_Qn_]O]w;PPexplanation4gB;Ioj)DKfXZrVY;t?lhXM%-807
     N00hhnh |C2020 12 01d#:,7[),SRUC[yo!2OMB/hN4^,acmL@p@LbUnUaJSv#HQ5Q$W:lM807
     N00hhnh |C2020 12 01B[1NBuvHolCA.yQ#.8'ai^c@toE+/kYRLjZI?0K4#H0eGaBVSIqB807
     N00hhnh |C2020 12 01b5=\*bAm-E4EZ]jbSG1=32XUB1Y:.A)KW3gxtS.x`E*bIRsf?+Dt807

Station data:
(807) Cerro Tololo Observatory, La Serena  (S30.169136 W70.805900)  Chile.
(C51) WISE. Measurers A. Mainzer, E. Wright, J. Bauer, T. Grav, J. Dailey, J.
   Masiero, R. Cutri, R. McMillan, R. Walker.

Orbital elements:  N00hhnh
   Perihelion 2021 Jan 26.387137 +/- 0.805 TT =  9:17:28 (JD 2459240.887137)
Epoch 2020 Dec  1.0 TT = JDT 2459184.5   Earth MOID: 0.2290   Ve: 0.0457
M 335.77475287 +/- 2.6              (J2000 ecliptic)          AutoNEOCP
n   0.42962363 +/- 0.0427           Peri.  359.06860 +/- 1.5
a   1.73944460 +/- 0.114            Node   162.68824 +/- 1.0
e   0.5617880 +/- 0.0282            Incl.   25.71036 +/- 0.7
P   2.29/837.93d           H 20.5   G  0.15   U 10.6  
q 0.76224534 +/- 0.00146    Q 2.71664386 +/- 0.242
From 17 observations 2020 Nov. 26-Dec. 1; mean residual 0".31
Residuals in arcseconds: 
201126 C51  .58+  .19+    201128 807  .04-  .16+    201130 807  .33+  .12+    
201126 C51  .41-  .45-    201128 807  .05-  .17+    201201 807  .18-  .24-    
201126 C51  .47-  .40-    201128 807  .03-  .15-    201201 807  .03-  .45+    
201126 C51  .31-  .10+    201128 807  .19+  .18-    201201 807  .12-  .59-    
201126 C51  .25+  .19+    201130 807  .02-  .07-    201201 807  .41+  .48+    
201126 C51  .27+  .50+    201130 807  .44-  .17-    

Ephemerides (geocentric):
Date (UTC) HH   RA              Dec         delta   r     elong  mag " sig PA
---- -- -- --  -------------   -----------  ------ ------ -----  --- ---- ---
2020 12 01 20  08 59 00.078   -52 02 44.99  .51574 1.0813  86.1 21.6 .029 167
2020 12 01 21  08 59 17.578   -52 04 21.11  .51554 1.0809  86.1 21.6 .023  40
2020 12 01 22  08 59 35.109   -52 05 57.12  .51534 1.0806  86.1 21.6 .038  79
2020 12 01 23  08 59 52.668   -52 07 33.02  .51515 1.0802  86.0 21.6 .060  93
2020 12 02 00  09 00 10.258   -52 09 08.80  .51495 1.0798  86.0 21.6 .084 100
2020 12 02 01  09 00 27.877   -52 10 44.46  .51476 1.0795  86.0 21.6 .110 104
2020 12 02 02  09 00 45.527   -52 12 20.01  .51456 1.0791  85.9 21.5 .137 106
2020 12 02 03  09 01 03.206   -52 13 55.44  .51437 1.0787  85.9 21.5 .164 108
2020 12 02 04  09 01 20.915   -52 15 30.75  .51417 1.0784  85.8 21.5 .193 109
2020 12 02 05  09 01 38.654   -52 17 05.94  .51398 1.0780  85.8 21.5 .222 110
2020 12 02 06  09 01 56.423   -52 18 41.01  .51379 1.0777  85.8 21.5 .252 111
2020 12 02 07  09 02 14.222   -52 20 15.96  .51359 1.0773  85.7 21.5 .283 112
2020 12 02 08  09 02 32.051   -52 21 50.79  .51340 1.0769  85.7 21.5 .314 112
2020 12 02 09  09 02 49.911   -52 23 25.50  .51320 1.0766  85.7 21.5 .346 112
2020 12 02 10  09 03 07.801   -52 25 00.09  .51301 1.0762  85.6 21.5 .379 113
2020 12 02 11  09 03 25.721   -52 26 34.56  .51282 1.0758  85.6 21.5 .413 113
2020 12 02 12  09 03 43.671   -52 28 08.90  .51262 1.0755  85.6 21.5 .447 113
2020 12 02 13  09 04 01.652   -52 29 43.12  .51243 1.0751  85.5 21.5 .483 114
2020 12 02 14  09 04 19.663   -52 31 17.22  .51224 1.0748  85.5 21.5 .519 114
2020 12 02 15  09 04 37.705   -52 32 51.19  .51205 1.0744  85.5 21.5 .556 114
2020 12 02 16  09 04 55.777   -52 34 25.03  .51186 1.0740  85.4 21.5 .593 114
2020 12 02 17  09 05 13.880   -52 35 58.75  .51166 1.0737  85.4 21.5 .632 114
2020 12 02 18  09 05 32.013   -52 37 32.35  .51147 1.0733  85.4 21.5 .671 115
2020 12 02 19  09 05 50.177   -52 39 05.81  .51128 1.0729  85.3 21.5 .711 115
2020 12 02 20  09 06 08.372   -52 40 39.15  .51109 1.0726  85.3 21.5 .752 115
2020 12 02 21  09 06 26.598   -52 42 12.36  .51090 1.0722  85.3 21.5 .793 115
2020 12 02 22  09 06 44.855   -52 43 45.44  .51071 1.0719  85.2 21.5 .836 115
2020 12 02 23  09 07 03.142   -52 45 18.39  .51052 1.0715  85.2 21.5 .879 115
2020 12 03 00  09 07 21.460   -52 46 51.22  .51033 1.0711  85.2 21.5 .923 115
2020 12 03 01  09 07 39.810   -52 48 23.91  .51014 1.0708  85.1 21.5 .968 115
2020 12 03 02  09 07 58.190   -52 49 56.47  .50995 1.0704  85.1 21.5 1.01 115
2020 12 03 03  09 08 16.602   -52 51 28.90  .50976 1.0700  85.1 21.5 1.06 115
2020 12 03 04  09 08 35.045   -52 53 01.19  .50957 1.0697  85.0 21.5 1.11 115
2020 12 03 05  09 08 53.519   -52 54 33.36  .50938 1.0693  85.0 21.5 1.16 115
2020 12 03 06  09 09 12.024   -52 56 05.39  .50919 1.0690  85.0 21.5 1.21 116
2020 12 03 07  09 09 30.560   -52 57 37.28  .50900 1.0686  84.9 21.5 1.26 116
2020 12 03 08  09 09 49.128   -52 59 09.04  .50881 1.0682  84.9 21.5 1.31 116
2020 12 03 09  09 10 07.727   -53 00 40.67  .50862 1.0679  84.9 21.5 1.36 116
2020 12 03 10  09 10 26.358   -53 02 12.16  .50843 1.0675  84.8 21.5 1.41 116
2020 12 03 11  09 10 45.020   -53 03 43.51  .50825 1.0672  84.8 21.5 1.47 116
2020 12 03 12  09 11 03.713   -53 05 14.72  .50806 1.0668  84.8 21.5 1.52 116
2020 12 03 13  09 11 22.438   -53 06 45.80  .50787 1.0664  84.7 21.5 1.58 116
2020 12 03 14  09 11 41.195   -53 08 16.74  .50768 1.0661  84.7 21.5 1.63 116
2020 12 03 15  09 11 59.983   -53 09 47.54  .50750 1.0657  84.7 21.5 1.69 116
2020 12 03 16  09 12 18.804   -53 11 18.20  .50731 1.0654  84.6 21.5 1.75 116
2020 12 03 17  09 12 37.656   -53 12 48.71  .50712 1.0650  84.6 21.5 1.81 116
2020 12 03 18  09 12 56.539   -53 14 19.09  .50694 1.0646  84.5 21.5 1.87 116
2020 12 03 19  09 13 15.455   -53 15 49.33  .50675 1.0643  84.5 21.5 1.93 116